RH
42 45 57 46 47 63 78 75 55 47 39 37 35 44 40 39 44 34 30 29 34 37 34 33 23 22 20 18 17 16 15 7 3 2 2 2 2 2 2 2 2 2 2 3 5
21 39 48 46 40 53 66 77 70 77 51 54 59 51 52 44 36 38 32 35 43 43 37 30 34 23 22 17 18 23 14 4 2 2 1 2 2 2 2 2 2 2 2 3 4
22 21 39 43 42 51 68 66 84 94 77 62 56 43 39 39 40 38 44 49 50 41 32 37 27 21 15 13 20 21 10 4 2 2 1 1 1 2 1 2 2 2 2 2 3
17 20 30 41 34 52 74 70 66 91 84 64 62 57 53 48 52 52 62 58 52 39 42 33 22 23 17 12 21 15 7 3 2 1 1 1 1 2 1 1 2 2 2 3 3
18 21 30 39 48 63 89 98 88 79 78 77 64 52 52 56 59 73 74 66 49 45 35 26 22 21 17 17 21 14 6 3 2 1 1 1 1 1 1 1 2 2 3 3 3
24 25 34 50 82 84 95 99 99 94 86 60 54 55 70 77 84 81 72 68 60 39 37 28 21 17 14 20 16 12 6 2 2 1 1 1 1 1 1 1 2 2 2 3 3
39 57 82 88 89 89 99 99 100 93 67 59 57 62 73 86 86 77 89 71 41 45 37 32 20 16 15 19 13 10 7 2 2 1 1 1 1 1 2 1 2 2 2 3 3
78 97 100 90 93 97 100 100 90 78 68 63 71 78 80 81 85 96 66 52 51 44 39 30 22 16 15 18 16 8 4 2 2 1 1 1 1 1 2 2 2 2 2 3 2
100 100 86 74 66 89 99 84 83 76 68 79 90 89 95 89 84 75 71 64 57 48 45 30 18 20 23 17 15 7 3 2 1 1 2 1 1 1 1 1 2 2 2 3 2
100 100 87 80 84 96 89 81 91 79 82 84 99 100 100 92 76 86 75 68 66 52 38 26 19 20 21 16 14 9 2 2 2 1 1 1 1 1 1 1 2 2 2 2 2
100 97 73 98 100 100 100 94 99 94 79 95 100 100 84 83 86 81 81 81 74 53 35 27 16 19 20 15 10 9 3 2 2 1 1 2 1 1 1 2 2 2 2 2 3
100 98 92 87 100 100 98 100 95 89 100 100 100 100 100 96 95 97 92 88 61 46 36 23 18 17 18 11 11 7 3 2 2 2 1 2 2 1 2 1 2 2 2 2 2
100 100 94 89 100 98 98 98 92 100 100 100 100 100 97 96 98 99 87 63 53 53 37 27 21 17 14 11 9 5 3 2 2 2 2 2 2 2 2 2 2 2 2 2 2
100 92 92 98 100 100 100 96 97 100 100 100 100 100 99 98 100 100 75 62 59 46 43 34 24 18 14 11 10 5 3 2 2 2 2 2 2 2 2 1 2 2 2 2 3
100 93 88 93 96 99 100 100 100 100 100 100 99 93 92 97 100 94 76 67 60 48 46 37 25 13 15 11 10 6 3 2 2 2 2 2 2 2 2 2 2 2 2 2 3
100 87 90 88 94 100 100 100 100 100 100 100 99 100 100 100 100 86 75 74 62 53 44 36 19 13 12 10 8 5 4 2 2 2 2 2 2 2 2 2 2 2 2 2 3
100 100 95 99 100 100 100 100 100 100 100 100 100 100 100 100 97 85 76 70 64 58 45 34 24 11 12 12 10 6 4 2 2 2 2 2 2 3 3 3 2 2 2 2 2
99 100 98 100 100 100 100 100 100 93 100 100 100 100 100 100 86 82 71 66 59 50 39 31 19 14 11 12 10 7 5 2 2 2 2 3 3 3 3 3 3 2 2 2 2
100 100 100 100 100 100 100 100 100 100 100 100 100 100 100 98 82 72 71 66 57 51 39 28 18 13 11 11 11 8 5 3 2 3 3 3 4 3 3 4 3 3 3 2 2
100 100 100 100 100 100 100 100 100 100 100 100 100 100 90 91 81 69 68 63 54 44 32 26 19 13 10 11 11 9 5 4 3 2 4 4 3 4 4 3 4 3 4 3 3
100 100 100 98 100 100 100 100 98 100 100 94 90 92 95 84 78 67 70 57 48 41 35 23 16 15 11 12 11 10 6 5 3 2 4 4 4 4 4 4 4 4 4 5 3
84 99 100 90 100 100 100 94 87 100 100 91 87 83 81 89 68 68 63 54 42 42 32 21 16 16 14 12 13 11 7 5 3 3 4 5 4 4 4 4 4 4 4 4 4
100 100 100 100 99 100 88 90 93 100 94 90 92 96 72 80 66 72 62 52 54 37 30 24 19 16 14 13 14 12 9 6 4 3 5 6 5 5 4 4 4 4 4 4 3
100 100 100 100 96 100 100 100 88 96 100 100 100 91 82 79 64 68 55 57 44 36 32 28 26 16 14 12 14 14 9 6 4 3 5 7 6 5 5 5 4 4 4 5 3
100 100 100 99 100 100 100 95 99 93 100 99 99 82 80 80 69 59 63 49 48 39 40 32 26 16 14 16 14 12 10 6 5 3 5 8 6 6 5 4 4 4 4 4 4
100 100 100 100 100 99 95 98 88 100 100 98 97 80 89 66 68 58 60 58 48 49 42 32 28 16 15 16 13 13 9 7 5 3 6 8 7 6 6 5 5 4 4 4 4
100 100 100 100 100 100 100 98 91 100 100 98 86 85 71 63 66 69 57 50 52 48 40 33 26 18 20 17 14 15 9 7 6 4 6 8 8 6 6 6 5 5 5 4 5
Wind_Speed
38 41 41 38 36 40 42 45 49 54 56 58 62 65 68 73 74 80 86 92 93 95 97 99 104 107 113 118 120 127 133 100 62 52 48 38 27 32 42 48 55 60 61 69 70
46 42 43 43 42 43 45 47 53 56 57 61 64 68 73 76 81 85 92 95 96 98 100 104 109 113 117 121 127 135 131 91 61 49 41 32 25 31 42 51 60 64 69 75 74
47 48 47 47 48 47 48 51 56 58 61 61 66 71 77 80 86 89 94 97 99 102 105 109 111 114 120 125 133 137 120 85 59 44 36 27 24 34 43 55 62 66 74 79 78
48 48 51 50 49 52 54 54 58 61 61 65 70 75 82 84 87 91 97 99 102 104 108 111 115 120 126 131 142 134 107 82 55 41 29 23 21 32 45 51 59 66 74 84 83
51 50 50 50 50 56 56 57 56 60 66 70 76 80 85 88 92 94 96 100 104 107 112 115 122 125 130 133 135 140 101 78 53 36 28 19 21 35 44 50 57 64 71 81 84
50 48 51 50 53 55 55 55 57 61 67 71 75 79 84 89 92 93 96 103 105 110 114 121 125 128 132 134 131 133 105 69 46 34 26 17 20 36 47 54 60 67 73 81 85
46 48 49 52 53 54 53 57 59 64 68 73 76 81 85 86 88 97 98 102 109 114 118 122 128 131 135 138 137 127 109 62 43 29 22 16 21 36 46 53 59 64 73 81 88
49 50 50 52 51 52 55 60 62 66 69 74 79 82 83 84 89 94 102 110 113 118 121 127 133 134 135 145 149 119 90 56 40 27 20 16 22 37 50 53 60 66 73 84 88
48 50 53 55 56 56 60 62 66 69 73 75 79 80 83 88 92 99 104 110 115 120 127 132 135 138 141 142 147 120 79 52 37 23 18 20 24 36 49 55 60 67 75 80 85
50 51 56 58 59 60 63 65 68 71 74 78 76 82 83 91 96 101 104 112 118 124 130 135 139 140 149 147 141 131 77 50 35 22 18 21 26 36 49 56 61 66 75 80 83
55 57 57 58 60 63 67 68 69 72 72 76 78 83 87 92 96 103 107 114 120 127 133 137 140 143 150 145 134 131 75 51 34 20 18 19 28 37 50 60 66 68 77 82 85
59 58 59 60 62 65 69 70 72 75 77 78 79 84 88 92 98 104 108 115 122 129 134 141 145 147 154 149 148 111 73 53 37 19 16 21 29 37 46 61 67 74 81 87 87
62 63 62 63 64 68 69 71 71 75 77 80 83 87 91 94 98 101 109 119 126 130 137 145 146 148 145 152 140 92 71 52 36 21 13 20 27 37 47 57 67 71 80 88 85
65 66 65 63 64 68 71 71 72 76 78 82 86 90 93 96 99 104 114 121 126 134 141 146 150 152 155 149 138 88 70 52 35 20 12 17 23 33 44 60 69 77 79 86 89
70 68 66 65 67 69 71 73 73 77 79 84 90 94 97 101 104 110 116 123 129 136 141 147 153 153 154 151 121 86 70 53 32 18 14 15 21 31 41 55 65 73 79 82 87
70 66 65 64 66 68 71 74 76 80 83 87 93 96 98 101 105 113 119 124 132 137 142 149 153 155 146 150 107 81 68 53 31 18 13 15 20 28 37 48 63 72 77 82 85
71 71 66 68 68 70 70 71 77 82 87 91 98 97 98 103 107 112 117 122 126 130 138 145 152 152 146 144 106 80 66 51 31 20 14 12 19 28 38 46 56 68 79 85 86
75 76 73 69 70 71 71 73 81 87 89 93 97 100 103 104 110 113 119 121 125 131 140 143 147 148 154 135 97 79 63 47 31 23 13 12 18 27 39 49 55 62 73 82 86
76 74 74 71 70 73 75 78 84 86 90 95 97 103 105 109 112 115 115 120 124 129 137 143 148 151 147 129 97 77 61 43 30 25 15 12 18 25 39 46 57 61 64 76 83
82 76 73 73 73 74 77 82 85 86 90 96 98 102 108 110 109 112 116 117 121 130 137 141 145 148 140 121 88 79 59 41 30 23 15 13 17 24 32 43 51 62 67 75 84
88 77 76 78 76 77 78 82 86 90 92 93 98 101 105 109 108 110 112 115 122 131 135 139 141 139 129 111 90 79 59 44 31 23 14 13 16 22 30 39 50 60 71 71 78
92 84 80 85 82 81 83 83 84 90 89 96 96 99 106 106 111 111 112 115 122 128 134 135 139 137 126 106 90 80 61 46 32 23 13 12 14 21 28 36 47 56 68 79 82
84 83 88 83 82 80 82 81 84 88 93 94 95 95 103 104 109 108 112 116 119 128 130 135 135 133 127 104 92 82 62 46 31 19 14 11 15 23 28 35 45 52 59 69 79
84 88 88 83 82 81 80 83 82 87 88 88 90 96 101 103 107 110 110 115 119 126 129 135 133 126 117 100 86 85 64 48 31 18 12 12 18 23 29 35 43 52 57 62 69
88 92 92 84 81 81 84 82 87 91 88 88 91 97 99 103 107 110 109 115 122 123 128 130 127 121 109 100 88 79 61 49 32 18 12 16 18 24 30 36 42 51 57 63 68
93 93 88 84 83 81 84 91 89 85 83 84 90 97 96 103 106 103 111 115 118 123 121 124 122 116 104 97 82 82 55 45 30 19 13 18 20 25 30 36 42 50 54 57 62
87 85 89 91 80 80 84 82 88 79 79 81 92 91 96 102 104 103 109 115 117 116 120 121 121 112 103 92 85 82 57 42 28 18 15 18 21 24 31 36 42 47 52 58 62
Wind_Direction
321 325 314 316 316 318 321 323 324 328 330 331 330 330 331 331 333 334 335 336 337 338 338 339 340 341 342 340 339 339 338 334 321 306 300 284 269 240 221 208 209 203 201 190 197
314 317 319 316 316 318 318 320 320 322 326 327 328 328 329 331 332 333 334 334 335 336 337 339 340 340 341 340 340 338 340 330 323 309 299 284 250 229 219 205 205 199 195 189 191
308 311 317 315 311 319 319 317 319 320 324 325 326 327 330 329 332 332 332 333 333 335 338 340 338 340 342 342 342 337 339 328 322 308 298 274 238 220 217 207 200 198 189 187 185
306 306 310 312 310 312 314 316 315 317 322 322 325 327 330 330 330 332 332 333 334 335 337 336 339 339 340 342 341 337 342 331 320 312 294 271 241 215 211 207 198 192 191 185 181
302 303 305 309 306 306 313 312 310 312 317 320 324 328 329 330 331 332 331 331 333 334 333 336 338 340 341 342 342 340 340 334 320 308 289 266 236 207 203 200 197 190 190 183 181
300 300 305 307 309 311 314 310 312 313 316 317 324 326 328 329 329 330 331 331 332 332 333 335 338 339 341 341 342 341 338 334 322 307 289 260 232 201 194 195 193 190 189 184 183
299 300 304 307 310 313 316 313 315 315 318 321 324 326 327 328 330 331 330 328 329 331 334 335 337 339 340 340 342 341 337 335 323 307 288 244 219 199 193 195 192 190 189 186 185
298 303 304 304 308 309 310 311 313 316 318 322 324 326 326 328 330 329 328 329 331 332 333 335 336 339 341 341 338 339 339 338 327 309 283 235 208 195 192 193 190 188 188 185 187
298 297 298 301 302 305 306 309 312 315 319 320 324 324 325 328 329 329 330 329 330 332 332 334 336 339 338 340 343 340 343 339 329 307 272 233 212 196 190 191 192 188 183 182 189
294 292 296 300 303 303 304 308 311 314 316 319 321 324 325 328 328 328 329 328 329 329 331 333 336 338 339 341 342 345 341 339 336 309 266 232 212 196 189 191 188 188 183 185 190
293 294 297 297 299 302 305 308 312 316 320 318 318 323 324 327 328 328 328 328 328 328 330 330 334 337 338 340 345 344 342 340 336 311 266 224 209 199 191 189 187 187 184 186 191
291 292 294 297 298 300 304 308 312 315 316 315 317 320 324 325 327 328 328 326 326 328 328 331 335 337 338 339 343 344 343 341 332 317 258 220 207 198 196 190 191 188 185 188 191
289 290 292 296 297 300 303 308 312 312 314 314 318 320 322 325 325 326 325 325 327 326 329 331 333 335 338 340 345 344 344 341 332 317 257 215 203 201 192 193 191 193 189 189 186
286 287 290 294 296 299 303 307 310 311 313 315 318 318 320 322 323 323 323 325 326 327 329 331 333 335 338 341 344 344 342 339 332 311 262 208 203 205 198 195 192 192 194 190 184
282 285 289 292 296 300 302 304 309 310 312 314 316 318 319 320 322 323 324 325 326 328 329 330 332 334 337 342 346 344 342 338 329 307 265 218 204 200 199 194 196 196 193 193 186
282 284 287 293 295 298 302 303 305 307 310 314 316 318 319 320 322 323 324 326 326 328 328 330 332 334 339 343 346 344 341 337 325 301 262 223 203 204 198 200 194 196 194 194 189
284 284 285 290 292 296 301 305 307 308 311 314 316 318 318 319 322 324 324 325 326 328 330 331 331 334 339 343 345 344 340 338 319 299 270 229 211 200 198 197 199 200 196 194 192
283 285 285 289 291 293 299 303 305 307 310 313 314 315 316 319 320 323 324 325 328 329 328 330 330 333 337 346 346 342 340 337 318 302 275 229 212 201 200 194 194 199 202 196 190
278 281 284 289 292 293 296 300 304 306 310 312 315 314 315 318 320 322 324 326 329 330 329 331 332 332 338 344 347 340 342 336 318 303 296 251 212 204 199 198 192 191 193 199 193
280 280 283 287 290 292 295 298 301 305 307 311 312 314 315 317 322 324 326 329 331 330 329 331 333 333 338 345 347 344 339 336 321 306 297 263 220 203 202 196 193 191 189 197 194
279 277 281 285 287 289 294 298 301 303 307 310 312 314 316 318 322 325 326 330 331 330 331 332 331 333 338 344 350 346 336 335 325 314 305 263 223 205 202 199 191 193 190 190 196
277 274 278 285 285 288 291 297 301 302 306 309 312 313 316 319 321 324 327 331 330 331 331 331 330 335 339 345 348 349 336 333 327 318 304 263 222 208 204 200 196 192 195 191 189
273 277 279 282 283 289 292 296 300 301 306 309 310 313 315 318 320 325 328 330 331 332 332 330 330 333 336 343 345 347 339 330 325 316 299 253 216 208 203 201 198 194 198 197 191
273 280 278 282 283 288 290 296 298 304 305 308 310 314 315 318 322 323 327 329 330 331 330 329 330 332 338 341 347 345 340 330 323 311 280 243 219 211 203 200 198 195 194 198 196
272 278 280 280 284 288 289 293 298 303 303 307 309 312 316 319 321 323 327 328 328 329 329 328 330 332 337 341 344 345 338 330 321 307 273 239 217 211 205 200 198 197 195 194 194
271 274 277 278 283 285 289 293 298 299 302 307 311 313 315 318 320 324 325 327 329 327 328 328 329 333 337 340 341 347 335 327 321 300 266 242 222 214 205 200 200 199 197 195 195
267 269 273 278 280 286 288 291 297 298 303 307 310 313 318 318 319 323 325 327 327 328 326 327 328 331 334 340 341 334 334 324 317 294 255 239 225 216 207 201 199 198 198 194 195